SCP
0 0 0 0 0 0 0 0 0 0 0 0 0 0 0 0 0 0 0 0 0 0 0 0 0 0 0 0 0 0 0 0 0 0 0 0 0 0 0 0 0 0 0 0
0 0 0 0 0 0 0 0 0 0 0 0 0 0 0 0 0 0 0 0 0 0 0 0 0 0 0 0 0 0 0 0 0 0 0 0 0 0 0 0 0 0 0 0
0 0 0 0 0 0 0 0 0 0 0 0 0 0 0 0 0 0 0 0 0 0 0 0 0 0 0 0 0 0 0 0 0 0 0 0 0 0 0 0 0 0 0 0
0 0 0 0 0 0 0 0 0 0 0 0 0 0 0 0 0 0 0 0 0 0 0 0 0 0 0 0 0 0 0 0 0 0 0 0 0 0 0 0 0 0 0 0
0 0 0 0 0 0 0 0 0 0 0 0 0 0 0 0 0 0 0 0 0 0 0 0 0 0 0 0 0 0 0 0 0 0 0 0 0 0 0 0 0 0 0 0
0 0 0 0 0 0 0 0 0 0 0 0 0 0 0 0 0 0 0 0 0 0 0 0 0 0 0 0 0 0 0 0 0 0 0 0 0 0 0 0 0 0 0 0
0 0 0 0 0 0 0 0 0 0 0 0 0 0 0 0 0 0 0 0 0 0 0 0 0 0 0 0 0 0 0 0 0 0 0 0 0 0 0 0 0 0 0 0
0 0 0 0 0 0 0 0 0 0 0 0 0 0 0 0 0 0 0 0 0 0 0 0 0 0 0 0 0 0 0 0 0 0 0 0 0 0 0 0 0 0 0 0
0 0 0 0 0 0 0 0 0 0 0 0 0 0 0 0 0 0 0 0 0 0 0 0 0 0 0 0 0 0 0 0 0 0 0 0 0 0 0 0 0 0 0 0
0 0 0 0 0 0 0 0 0 0 0 0 0 0 0 0 0 0 0 0 0 0 0 0 0 0 0 0 0 0 0 0 0 0 0 0 0 0 0 0 0 0 0 0
0 0 0 0 0 0 0 0 0 0 0 0 0 0 0 0 0 0 0 0 0 0 0 0 0 0 0 0 0 0 0 0 0 0 0 0 0 0 0 0 0 0 0 0
0 0 0 0 0 0 0 0 0 0 0 0 0 0 0 0 0 0 0 0 0 0 0 0 0 0 0 0 0 0 0 0 0 0 0 0 0 0 0 0 0 0 0 0
0 0 0 0 0 0 0 0 0 0 0 0 0 0 0 0 0 0 0 0 0 0 0 0 0 0 0 0 0 0 0 0 0 0 0 0 0 0 0 0 0 0 0 0
0 0 0 0 0 0 0 0 0 0 0 0 0 0 0 0 0 0 0 0 0 0 0 0 0 0 0 0 0 0 0 0 0 0 0 0 0 0 0 0 0 0 0 0
0 0 0 0 0 0 0 0 0 0 0 0 0 0 0 0 0 0 0 0 0 0 0 0 0 0 0 0 0 0 0 0 0 0 0 0 0 0 0 0 0 0 0 0
0 0 0 0 0 0 0 0 0 0 0 0 0 0 0 0 0 0 0 0 0 0 0 0 0 0 0 0 0 0 0 0 0 0 0 0 0 0 0 0 0 0 0 0
0 0 0 0 0 0 0 0 0 0 0 0 0 0 0 0 0 0 0 0 0 0 0 0 0 0 0 0 0 0 0 0 0 0 0 0 0 0 0 0 0 0 0 0
0 0 0 0 0 0 0 0 0 0 0 0 0 0 0 0 0 0 0 0 0 0 0 0 0 0 0 0 0 0 0 0 0 0 0 0 0 0 0 0 0 0 0 0
0 0 0 0 0 0 0 0 0 0 0 0 0 0 0 0 0 0 0 0 0 0 0 0 0 0 0 0 0 0 0 0 0 0 0 0 0 0 0 0 0 0 0 0
0 0 0 0 0 0 0 0 0 0 0 0 0 0 0 0 0 0 0 0 0 0 0 0 0 0 0 0 0 0 0 0 0 0 0 0 0 0 0 0 0 0 0 0
0 0 0 0 0 0 0 0 0 0 0 0 0 0 0 0 0 0 0 0 0 0 0 0 0 0 0 0 0 0 0 0 0 0 0 0 0 0 0 0 0 0 0 0
0 0 0 0 0 0 0 0 0 0 0 0 0 0 0 0 0 0 0 0 0 0 0 0 0 0 0 0 0 0 0 0 0 0 0 0 0 0 0 0 0 0 0 0
0 0 0 0 0 0 0 0 0 0 0 0 0 0 0 0 0 0 0 0 0 0 0 0 0 0 0 0 0 0 0 0 0 0 0 0 0 0 0 0 0 0 0 0
0 0 0 0 0 0 0 0 0 0 0 0 0 0 0 0 0 0 0 0 0 0 0 0 0 0 0 0 0 0 0 0 0 0 0 0 0 0 0 0 0 0 0 0
0 0 0 0 0 0 0 0 0 0 0 0 0 0 0 0 0 0 0 0 0 0 0 0 0 0 0 0 0 0 0 0 0 0 0 0 0 0 0 0 0 0 0 0
0 0 0 0 0 0 0 0 0 0 0 0 0 0 0 0 0 0 0 0 0 0 0 0 0 0 0 0 0 0 0 0 0 0 0 0 0 0 0 0 0 0 0 0
Wind_Speed
2 1 6 10 9 10 5 2 1 1 2 5 5 5 3 4 4 5 5 6 6 5 4 4 6 7 7 5 6 5 5 5 4 3 3 3 2 1 1 1 2 3 3 3
4 7 14 12 9 5 2 1 0 2 3 5 4 3 3 4 6 7 8 8 9 7 5 6 6 6 6 6 5 5 5 5 4 3 2 2 2 2 2 1 2 2 3 3
8 12 9 5 3 0 1 2 3 4 3 4 4 1 1 2 4 6 6 6 8 10 9 8 7 6 7 7 6 6 5 5 4 4 3 3 3 3 3 2 1 1 1 2
7 9 6 4 3 1 1 2 6 7 5 1 2 1 3 3 3 5 6 6 8 9 8 8 8 7 7 7 6 6 5 5 4 4 4 4 3 2 1 1 0 1 1 0
6 5 4 3 3 2 2 3 5 5 5 3 3 2 4 2 4 7 8 9 10 10 10 10 9 9 8 8 7 6 6 5 4 5 5 5 4 2 1 1 2 2 2 2
8 6 3 4 2 3 6 6 6 6 5 3 1 1 4 4 6 8 9 11 11 10 10 9 9 8 7 7 7 7 6 5 5 5 6 6 5 4 4 3 2 2 2 2
6 6 4 1 1 2 4 5 4 5 5 2 2 1 7 7 8 10 11 11 11 11 10 10 10 9 9 9 8 7 7 5 5 6 5 5 5 5 5 3 2 2 1 1
3 7 5 2 4 4 3 7 6 3 3 2 2 3 7 6 7 9 10 10 11 11 11 12 12 11 11 10 9 8 8 6 6 6 5 5 5 4 3 4 3 3 2 1
5 7 4 4 2 5 3 2 6 7 3 1 3 5 6 1 5 8 10 11 12 13 13 13 12 11 11 11 10 10 9 7 7 6 5 5 5 5 4 4 3 2 2 2
7 4 4 2 2 2 4 5 5 6 5 2 3 4 5 6 8 8 10 13 13 12 13 12 11 11 10 10 9 9 9 9 7 7 6 5 5 5 5 4 3 3 2 2
4 4 3 2 1 2 2 2 4 4 6 7 3 8 9 12 12 12 12 13 15 14 14 12 11 10 10 10 10 9 8 7 7 7 6 6 5 5 4 4 4 3 3 2
3 5 1 4 3 2 3 4 6 5 3 5 5 8 7 12 12 12 12 13 12 13 13 13 12 11 10 10 10 9 9 8 8 7 6 6 5 5 4 4 4 3 3 3
3 6 3 5 7 4 0 2 4 6 5 4 5 7 4 6 9 11 11 11 10 12 12 11 11 11 11 10 10 9 9 8 7 7 6 6 5 5 5 5 4 4 4 4
4 4 7 8 8 5 4 3 4 6 4 5 7 7 5 7 9 9 10 10 12 14 14 12 11 11 10 10 10 9 8 8 8 7 7 6 6 6 6 5 5 4 4 4
5 3 2 4 4 3 5 6 5 6 8 8 8 9 11 11 12 12 11 11 12 13 14 14 13 11 10 9 9 9 8 8 8 7 7 7 6 6 5 5 5 4 4 5
4 4 1 2 4 4 6 6 5 5 5 6 5 7 8 6 5 8 10 14 15 15 15 14 13 12 12 12 10 9 9 8 8 8 7 6 6 6 6 5 5 4 4 4
3 4 3 2 3 4 6 5 3 2 1 3 6 7 2 5 9 12 12 13 15 15 14 14 14 14 13 12 11 11 9 8 8 7 7 6 7 6 6 5 4 4 4 4
6 5 4 2 2 3 8 3 1 1 2 3 0 1 4 7 9 8 10 13 13 14 14 13 12 11 10 9 9 9 8 8 8 7 6 6 6 6 5 5 5 5 4 4
5 6 4 3 3 5 6 4 1 1 3 6 4 2 1 3 6 1 4 9 13 14 13 12 12 11 9 10 10 9 8 7 7 7 7 6 6 6 6 5 5 5 4 4
4 5 5 3 2 5 6 6 4 4 2 5 3 3 3 6 4 4 4 5 7 8 8 9 9 8 9 9 9 10 8 7 8 8 7 6 6 7 6 6 6 5 4 5
2 2 3 3 3 6 5 5 3 4 4 3 1 2 3 3 6 5 3 4 6 7 7 9 9 9 10 9 9 9 8 9 8 6 6 5 6 6 6 5 4 5 5 5
3 2 2 3 3 7 3 2 3 5 2 0 1 1 1 0 3 1 2 4 5 5 6 9 9 8 7 8 10 8 8 8 6 6 6 5 5 5 4 4 4 5 5 5
2 5 4 5 6 4 1 3 3 4 3 1 1 1 1 2 1 2 2 2 4 6 7 7 8 8 6 7 9 9 7 5 5 5 5 5 5 5 4 5 5 4 4 4
2 2 3 1 3 2 2 2 2 2 2 2 1 1 2 2 1 1 1 1 1 3 5 5 7 7 6 5 5 6 5 5 5 5 5 4 4 5 5 4 4 4 5 5
4 3 3 2 2 1 3 3 3 3 3 4 5 5 4 4 3 1 2 1 2 3 3 4 5 5 5 4 4 3 4 5 4 4 4 4 4 5 5 5 5 6 7 7
3 5 7 6 8 6 5 4 3 5 5 5 7 7 5 4 3 2 2 2 3 4 4 4 4 3 3 3 3 2 2 3 4 3 3 3 3 3 4 4 5 8 10 13
Wind_Direction
292 93 248 246 225 223 235 233 262 250 143 100 115 128 145 127 135 154 167 170 172 184 172 160 149 144 132 124 130 137 133 133 124 112 109 108 109 106 107 131 135 133 126 117
333 266 250 251 259 255 230 118 15 65 102 112 124 117 157 161 173 178 170 175 180 182 171 164 159 146 141 147 144 139 137 136 134 130 129 132 125 106 103 82 76 90 107 121
229 251 266 276 280 218 298 175 169 152 96 76 107 47 239 187 158 173 173 186 182 178 172 167 163 158 151 153 156 151 147 140 138 126 101 82 67 61 50 41 32 20 110 136
248 258 272 288 288 145 268 199 143 133 116 84 98 170 266 199 165 176 183 188 192 180 172 167 168 165 163 163 158 146 148 142 137 122 112 114 115 115 147 173 44 355 12 62
261 274 285 279 255 140 168 119 98 103 109 78 33 91 286 181 183 189 191 191 191 182 174 173 176 172 166 161 153 152 148 144 141 129 125 118 114 127 117 78 60 36 22 36
259 268 249 240 260 145 132 82 56 49 66 49 306 110 272 218 199 186 189 186 185 181 175 175 174 165 162 161 154 149 146 147 142 130 127 129 129 123 103 82 74 45 22 26
298 296 284 244 4 47 103 86 36 5 20 276 260 179 252 236 191 179 186 186 183 177 174 174 172 170 170 168 163 157 151 149 145 136 138 140 138 132 133 134 120 102 62 40
244 283 265 232 183 180 185 139 156 198 206 271 302 243 259 250 189 177 180 183 181 177 178 179 179 176 175 173 167 160 157 156 154 149 152 150 143 139 146 153 149 149 162 174
196 248 265 244 216 147 162 174 165 132 117 97 288 291 308 139 157 173 177 179 184 184 183 183 181 177 173 171 171 166 162 160 164 163 158 156 155 156 164 168 160 166 183 182
175 231 274 271 58 348 161 153 94 107 136 181 271 261 234 202 190 191 187 186 192 190 186 184 179 174 170 169 166 163 163 168 172 169 166 163 168 170 173 168 169 177 189 185
152 169 298 15 149 221 90 91 111 122 149 151 209 257 219 199 194 191 198 195 192 188 186 180 174 169 163 160 162 165 169 168 170 171 168 162 172 172 164 164 177 184 195 202
153 126 212 273 272 249 166 167 143 144 193 161 171 257 243 192 192 190 196 198 193 184 177 170 166 161 161 164 167 170 173 173 176 173 169 172 173 167 167 179 191 191 199 213
121 112 85 337 333 338 300 185 148 135 130 158 172 253 250 193 191 194 194 192 181 170 164 161 162 166 170 171 171 173 174 174 172 167 166 169 173 175 185 195 199 201 207 221
111 122 158 194 224 229 243 232 175 137 154 197 211 223 231 206 198 197 189 181 169 167 165 164 169 173 173 172 173 173 174 171 167 164 166 174 185 189 196 200 205 210 213 220
106 131 194 219 229 205 229 240 217 198 191 194 224 209 219 210 199 191 179 166 160 166 168 171 174 175 174 173 175 172 172 172 168 166 174 189 194 194 195 200 211 217 221 227
104 145 139 316 296 290 278 264 251 243 220 221 222 237 231 206 177 168 164 162 165 172 177 178 177 175 177 177 177 173 174 175 169 173 187 193 190 193 200 208 215 216 223 231
136 137 134 241 293 345 289 248 226 237 256 192 200 229 190 159 172 175 172 169 171 176 178 179 181 181 181 180 175 175 177 172 173 183 192 193 192 198 206 207 200 210 221 224
140 131 141 166 73 236 250 258 201 150 28 18 12 220 163 178 182 179 172 172 177 179 180 184 182 181 180 175 170 167 164 169 178 188 198 197 193 198 201 199 209 219 218 222
136 135 129 137 187 262 291 314 318 119 36 15 36 16 59 89 81 39 206 181 184 184 183 185 182 175 169 170 168 159 166 174 180 193 200 199 191 193 197 207 220 221 218 232
72 103 122 136 175 236 255 286 295 102 58 339 32 63 60 80 109 242 236 192 184 181 179 176 167 158 163 172 161 159 172 178 193 199 199 193 187 190 201 213 219 218 218 233
53 66 139 168 210 253 253 289 357 124 219 285 6 84 101 143 204 223 213 199 184 175 173 165 158 165 176 169 160 169 178 195 202 193 188 187 190 196 205 215 220 223 227 239
176 163 189 157 197 249 273 5 150 191 216 260 38 56 78 300 295 257 186 199 180 167 162 160 162 173 173 165 165 175 194 202 186 177 182 192 200 208 207 212 228 227 226 240
186 185 181 188 214 246 251 208 210 162 154 214 308 289 130 97 256 227 201 191 177 168 165 164 166 168 169 172 172 185 202 180 167 174 191 203 209 219 218 216 228 235 231 233
266 139 122 196 256 237 231 212 181 162 154 155 151 103 98 92 61 318 20 93 140 149 158 155 153 160 172 178 183 191 180 166 165 187 205 210 217 236 241 235 229 231 236 237
227 165 157 196 214 187 255 226 180 140 113 106 85 71 78 86 79 103 78 82 89 84 104 127 147 163 173 175 186 187 172 163 175 197 211 220 227 239 252 250 238 233 232 228
222 190 174 200 203 179 206 210 167 118 96 94 91 75 59 77 87 89 91 99 98 88 85 93 104 126 150 154 169 176 166 164 175 207 227 231 239 246 250 262 276 257 249 255